Regional Weather Roundup
Issued by NWS

Home | Current Version | Previous Version | Graphics & Text | Print | Product List | Glossary On
Versions: 1 2 3 4 5 6 7 8 9 10 11 12 13 14 15 16 17 18 19 20 21 22 23 24 25 26 27 28 29 30 31 32 33 34 35 36 37 38 39 40 41 42 43 44 45 46 47 48 49 50
067
ASUS44 KJAN 290603
RWRMS

MISSISSIPPI HOURLY WEATHER ROUNDUP
NATIONAL WEATHER SERVICE JACKSON MS
100 AM CDT FRI AUG 29 2014

NOTE: "FAIR: INDICATES FEW OR NO CLOUDS BELOW 12,000 FEET WITH NO
SIGNIFICANT WEATHER AND/OR OBSTRUCTIONS TO VISIBILITY.

MSZ001>002-007>008-010>013-018>021-025>028-034>036-290700-
NORTHWEST MISSISSIPPI

CITY           SKY/WX    TMP DP  RH WIND       PRES   REMARKS
CLARKSDALE       N/A     72  68  88 CALM      29.97S
CLEVELAND      FAIR      74  71  89 CALM      29.95F
GREENWOOD      FAIR      70  67  90 SW3       29.97F
6HR MIN TEMP:  70; 6HR MAX TEMP:  81;

GREENVILLE     FAIR      74  71  91 CALM      29.95F
6HR MIN TEMP:  74; 6HR MAX TEMP:  86;

GRENADA        FAIR      68  68 100 CALM      29.97F
OLIVE BRANCH   CLEAR     75  75 100 CALM      29.98S
OXFORD         FAIR      68  66  94 CALM      29.99F
TUNICA         FAIR      72  66  83 CALM      29.98S
$$

MSZ003>006-009-014>017-022>024-029>033-037>039-290700-
NORTHEAST MISSISSIPPI

CITY           SKY/WX    TMP DP  RH WIND       PRES   REMARKS
BELMONT        FAIR      71  68  93 CALM      29.99F
COLUMBUS AFB   FAIR      70  65  84 CALM      29.98S
6HR MIN TEMP:  69; 6HR MAX TEMP:  88;

CORINTH          N/A     70  68  94 CALM      29.98S FOG
GOLDN TRIANGLE FAIR      73  63  68 E6        29.99S
STARKVILLE     FAIR      70  64  83 CALM      29.98S
TUPELO         FAIR      72  68  87 CALM      29.97F
6HR MIN TEMP:  72; 6HR MAX TEMP:  89;

$$

MSZ040-058-290700-
CENTRAL MISSISSIPPI

CITY           SKY/WX    TMP DP  RH WIND       PRES   REMARKS
JACKSON INTL   FAIR      76  71  85 SE6       29.98S
6HR MIN TEMP:  74; 6HR MAX TEMP:  84;

JACKSON HAWKNS FAIR      78  70  76 CALM      29.99S
6HR MIN TEMP:  75; 6HR MAX TEMP:  84;

MERIDIAN KEY   FAIR      69  66  90 CALM      29.99F
6HR MIN TEMP:  69; 6HR MAX TEMP:  85;

MERIDIAN NAS   FAIR      70  67  90 CALM      29.99S
6HR MIN TEMP:  70; 6HR MAX TEMP:  84;

RAYMOND        FAIR      73  68  83 CALM      29.98S
VICKSBURG      FAIR      72  70  93 CALM      29.96F
6HR MIN TEMP:  71; 6HR MAX TEMP:  79; 6HR PCP: TRACE;

$$

MSZ059>079-290700-
SOUTH MISSISSIPPI

CITY           SKY/WX    TMP DP  RH WIND       PRES   REMARKS
BROOKHAVEN     FAIR      73  73 100 CALM      30.01F
HATTIESBURG    FAIR      74  71  91 CALM      29.99S
6HR MIN TEMP:  74; 6HR MAX TEMP:  87;

MCCOMB         FAIR      78  71  79 CALM      29.99S
6HR MIN TEMP:  77; 6HR MAX TEMP:  86;

NATCHEZ        FAIR      77  72  83 SE6       29.98S
6HR MIN TEMP:  77; 6HR MAX TEMP:  84;

PINE BELT      FAIR      73  66  78 CALM      30.00F
$$

MSZ080>082-290700-
COASTAL MISSISSIPPI

CITY           SKY/WX    TMP DP  RH WIND       PRES   REMARKS
BILOXI         FAIR      78  73  84 E3        29.97F
6HR MIN TEMP:  78; 6HR MAX TEMP:  84;

PASCAGOULA     FAIR      71  70  96 CALM      29.98F FOG
6HR MIN TEMP:  71; 6HR MAX TEMP:  78;

GULFPORT       FAIR      76  72  87 CALM      29.96F
6HR MIN TEMP:  76; 6HR MAX TEMP:  86;

$$



USA.gov is the U.S. government's official web portal to all federal, state and local government web resources and services.